{"data":{"norad_id":49200,"epoch":"2026-05-25T02:42:34.477056Z","epoch_age_seconds":58485,"freshness":"FRESH","line1":"1 49200U 21083Q   26145.11289904  .00000054  00000+0  10160-3 0  9990","line2":"2 49200  87.9170 279.0477 0001192  75.7264 284.4002 13.20769311233741","mean_motion":13.20769311,"eccentricity":0.0001192,"inclination_deg":87.917,"raan_deg":279.0477,"arg_perigee_deg":75.7264,"mean_anomaly_deg":284.4002,"bstar":0.0001016,"rev_number":23374,"period_min":109.02736670265,"perigee_km":1180.881777434,"apogee_km":1182.6840623429,"semimajor_km":7559.9199198885,"source":"CELESTRAK","updated_at":"2026-05-25T13:38:22.491880Z"}}